Location: Amarillo Post Office Jordan Station
(35.1907°N, 101.9342°W)
Time: 18:04:39
(UTC+00:00)

Cosmos 1943 Rocket - Visible Passes

Search period start: 14 May 2021 00:00
Search period end: 24 May 2021 00:00
Orbit: 812 x 843 km, 71.0° (Epoch: 13 May)

Date Brightness Start Highest point End Pass type
(mag) Time Alt. Az. Time Alt. Az. Time Alt. Az.
14 May 3.1 04:20:39 34° ENE 04:20:39 34° ENE 04:24:11 10° NE visible
14 May 4.0 06:02:06 23° WNW 06:02:47 23° WNW 06:07:11 10° N visible
15 May 3.0 04:00:53 34° ENE 04:00:53 34° ENE 04:04:50 10° NE visible
15 May 3.9 05:42:19 24° W 05:43:29 26° WNW 05:48:10 10° N visible
16 May 2.9 03:40:56 32° E 03:40:56 32° E 03:45:28 10° NE visible
16 May 3.8 05:22:21 25° W 05:24:12 30° WNW 05:29:05 10° N visible
17 May 3.0 03:20:43 27° ESE 03:21:22 28° ESE 03:26:04 10° NE visible
17 May 3.6 05:02:07 22° WSW 05:04:56 34° WNW 05:10:00 10° N visible
18 May 3.2 03:00:06 19° SE 03:02:12 24° ESE 03:06:37 10° NE visible
18 May 3.4 04:41:28 15° SW 04:45:40 39° WNW 04:50:54 10° N visible
19 May 3.4 02:38:59 10° SSE 02:43:03 21° E 02:47:07 10° NE visible
19 May 3.2 04:21:02 10° SW 04:26:24 45° WNW 04:31:46 10° N visible
20 May 3.5 02:20:15 10° SE 02:23:54 18° E 02:27:33 10° ENE visible
20 May 2.9 04:01:41 10° SW 04:07:09 52° WNW 04:12:37 10° N visible
21 May 2.7 03:42:22 10° SSW 03:47:54 60° WNW 03:53:26 10° NNE visible
22 May 2.5 03:23:04 10° SSW 03:28:40 69° WNW 03:34:16 10° NNE visible
23 May 2.3 03:03:49 10° SSW 03:09:27 79° WNW 03:15:04 10° NNE visible
23 May 5.3 04:53:20 10° WNW 04:54:03 10° NW 04:54:47 10° NW visible
